| time (UTC) | temp F | wind direction | speed knots | gust knots | rain 1hr in | rain 24hr in | rain mn in | humidity % | barometer mb |
| 20260509031524 | 42 | 336 | 0.0 | 0.0 | 0.00 | 0.01 | 0.00 | 81 | 1008.7 |
| 20260509030021 | 43 | 336 | 0.0 | 0.0 | 0.00 | 0.01 | 0.00 | 79 | 1008.6 |
| 20260509024516 | 44 | 336 | 0.0 | 0.9 | 0.00 | 0.01 | 0.01 | 78 | 1008.4 |
| 20260509023015 | 45 | 336 | 0.0 | 1.7 | 0.00 | 0.01 | 0.01 | 77 | 1008.3 |
| 20260509021514 | 46 | 317 | 0.0 | 1.7 | 0.00 | 0.01 | 0.01 | 76 | 1008.2 |
| 20260509020011 | 46 | 333 | 0.0 | 3.5 | 0.00 | 0.01 | 0.01 | 76 | 1008.0 |
| 20260509014512 | 46 | 272 | 0.0 | 2.6 | 0.00 | 0.01 | 0.01 | 75 | 1007.9 |
| 20260509013009 | 47 | 271 | 0.0 | 2.6 | 0.00 | 0.01 | 0.01 | 74 | 1007.7 |
| 20260509011509 | 47 | 304 | 0.9 | 4.3 | 0.00 | 0.01 | 0.01 | 73 | 1007.3 |
| 20260509010011 | 47 | 278 | 0.0 | 2.6 | 0.00 | 0.01 | 0.01 | 71 | 1007.0 |
| 20260509004504 | 48 | 291 | 0.0 | 2.6 | 0.00 | 0.01 | 0.01 | 69 | 1006.8 |
| 20260509003102 | 49 | 252 | 0.9 | 4.3 | 0.00 | 0.01 | 0.01 | 68 | 1006.6 |
| 20260509001558 | 49 | 277 | 0.0 | 2.6 | 0.00 | 0.01 | 0.01 | 66 | 1006.2 |
| 20260509000054 | 50 | 249 | 0.9 | 3.5 | 0.00 | 0.01 | 0.01 | 64 | 1005.8 |
| 20260508234552 | 51 | 262 | 0.0 | 4.3 | 0.00 | 0.01 | 0.01 | 62 | 1005.5 |
| 20260508233049 | 52 | 317 | 0.0 | 3.5 | 0.00 | 0.01 | 0.01 | 59 | 1005.1 |
| 20260508231552 | 53 | 314 | 0.0 | 4.3 | 0.00 | 0.01 | 0.01 | 56 | 1004.7 |
| 20260508230042 | 54 | 255 | 0.9 | 5.2 | 0.00 | 0.01 | 0.01 | 53 | 1004.3 |
| 20260508224559 | 56 | 252 | 1.7 | 7.0 | 0.00 | 0.01 | 0.01 | 50 | 1004.0 |
| 20260508223038 | 56 | 301 | 1.7 | 7.0 | 0.00 | 0.01 | 0.01 | 48 | 1003.7 |
| 20260508221544 | 57 | 8 | 0.9 | 3.5 | 0.00 | 0.01 | 0.01 | 44 | 1003.3 |
| 20260508220132 | 58 | 231 | 0.9 | 7.0 | 0.00 | 0.01 | 0.01 | 41 | 1003.1 |
| 20260508214538 | 59 | 316 | 1.7 | 7.8 | 0.00 | 0.01 | 0.01 | 39 | 1002.9 |
| 20260508213033 | 60 | 143 | 0.9 | 6.1 | 0.00 | 0.01 | 0.01 | 41 | 1002.7 |
| 20260508211528 | 60 | 35 | 0.9 | 7.8 | 0.00 | 0.01 | 0.01 | 41 | 1002.5 |
| 20260508210027 | 58 | 99 | 0.0 | 4.3 | 0.00 | 0.01 | 0.01 | 44 | 1002.3 |
| 20260508204527 | 58 | 231 | 1.7 | 5.2 | 0.00 | 0.01 | 0.01 | 43 | 1002.2 |
| 20260508203026 | 59 | 253 | 2.6 | 6.1 | 0.00 | 0.01 | 0.01 | 42 | 1002.0 |
| 20260508201526 | 61 | 254 | 1.7 | 11.3 | 0.00 | 0.01 | 0.01 | 40 | 1001.8 |
| 20260508200037 | 62 | 248 | 2.6 | 9.6 | 0.00 | 0.01 | 0.01 | 42 | 1001.6 |
| 20260508194524 | 61 | 349 | 1.7 | 7.0 | 0.00 | 0.01 | 0.01 | 43 | 1001.6 |
| 20260508193023 | 62 | 252 | 1.7 | 7.0 | 0.00 | 0.01 | 0.01 | 43 | 1001.4 |
| 20260508191520 | 61 | 256 | 0.9 | 9.6 | 0.00 | 0.01 | 0.01 | 48 | 1001.3 |
| 20260508190020 | 59 | 253 | 8.7 | 13.9 | 0.00 | 0.01 | 0.01 | 47 | 1001.2 |
| 20260508184524 | 58 | 259 | 8.7 | 15.6 | 0.00 | 0.02 | 0.01 | 50 | 1001.2 |
| 20260508183013 | 58 | 264 | 7.0 | 14.8 | 0.00 | 0.02 | 0.01 | 51 | 1001.2 |
| 20260508181513 | 57 | 256 | 9.6 | 14.8 | 0.00 | 0.02 | 0.01 | 52 | 1001.4 |
| 20260508180010 | 57 | 300 | 6.1 | 13.0 | 0.00 | 0.02 | 0.01 | 55 | 1001.4 |
| 20260508174509 | 57 | 243 | 7.8 | 13.9 | 0.00 | 0.08 | 0.01 | 57 | 1001.6 |
| 20260508173014 | 57 | 246 | 7.0 | 14.8 | 0.00 | 0.08 | 0.01 | 59 | 1001.5 |
| 20260508171514 | 57 | 226 | 7.0 | 12.2 | 0.00 | 0.08 | 0.01 | 60 | 1001.7 |
| 20260508170006 | 57 | 255 | 6.1 | 13.0 | 0.00 | 0.08 | 0.01 | 61 | 1001.7 |
| 20260508164506 | 56 | 243 | 9.6 | 15.6 | 0.00 | 0.30 | 0.01 | 65 | 1001.9 |
| 20260508163005 | 56 | 248 | 7.0 | 13.9 | 0.00 | 0.30 | 0.01 | 67 | 1001.9 |
| 20260508161509 | 57 | 255 | 7.8 | 13.9 | 0.00 | 0.30 | 0.01 | 63 | 1001.9 |
| 20260508160003 | 57 | 259 | 7.8 | 13.9 | 0.00 | 0.30 | 0.01 | 59 | 1002.0 |
| 20260508154602 | 56 | 254 | 5.2 | 11.3 | 0.00 | 0.52 | 0.01 | 68 | 1002.0 |
| 20260508153057 | 56 | 264 | 4.3 | 10.4 | 0.00 | 0.52 | 0.01 | 76 | 1002.1 |
| 20260508151554 | 54 | 253 | 4.3 | 9.6 | 0.00 | 0.52 | 0.01 | 83 | 1002.1 |
| 20260508150118 | 52 | 245 | 4.3 | 8.7 | 0.00 | 0.52 | 0.01 | 84 | 1002.3 |
| 20260508144555 | 51 | 207 | 2.6 | 6.1 | 0.00 | 0.52 | 0.01 | 88 | 1002.3 |
| 20260508143049 | 48 | 214 | 4.3 | 8.7 | 0.00 | 0.52 | 0.01 | 91 | 1002.4 |
| 20260508141552 | 47 | 252 | 5.2 | 12.2 | 0.00 | 0.52 | 0.01 | 91 | 1002.5 |
| 20260508140051 | 48 | 162 | 1.7 | 6.1 | 0.00 | 0.52 | 0.01 | 89 | 1002.5 |
| 20260508134540 | 48 | 158 | 4.3 | 8.7 | 0.00 | 0.53 | 0.01 | 92 | 1002.5 |
| 20260508133042 | 48 | 186 | 1.7 | 6.1 | 0.00 | 0.53 | 0.01 | 91 | 1002.6 |
| 20260508131537 | 49 | 202 | 2.6 | 5.2 | 0.00 | 0.53 | 0.01 | 94 | 1002.4 |
| 20260508130036 | 48 | 227 | 2.6 | 6.1 | 0.00 | 0.53 | 0.01 | 94 | 1002.5 |
| 20260508124534 | 46 | 161 | 1.7 | 3.5 | 0.00 | 0.55 | 0.01 | 94 | 1002.5 |
| 20260508123035 | 47 | 159 | 0.0 | 0.9 | 0.00 | 0.55 | 0.01 | 94 | 1002.4 |
| 20260508121534 | 48 | 192 | 0.0 | 3.5 | 0.00 | 0.55 | 0.01 | 94 | 1002.4 |
| 20260508120032 | 48 | 141 | 0.0 | 2.6 | 0.00 | 0.55 | 0.01 | 94 | 1002.4 |
| 20260508114535 | 47 | 231 | 2.6 | 5.2 | 0.00 | 0.61 | 0.01 | 93 | 1002.4 |
| 20260508113045 | 50 | 167 | 0.0 | 1.7 | 0.00 | 0.61 | 0.01 | 94 | 1002.5 |
| 20260508111526 | 48 | 233 | 0.9 | 2.6 | 0.00 | 0.61 | 0.01 | 94 | 1002.4 |
| 20260508110023 | 48 | 65 | 0.0 | 1.7 | 0.00 | 0.61 | 0.01 | 95 | 1002.1 |
| 20260508104523 | 47 | 71 | 0.0 | 1.7 | 0.01 | 0.64 | 0.01 | 95 | 1002.1 |
| 20260508103022 | 46 | 96 | 0.0 | 1.7 | 0.01 | 0.64 | 0.01 | 96 | 1001.9 |
| 20260508101531 | 45 | 18 | 0.0 | 1.7 | 0.01 | 0.64 | 0.01 | 96 | 1001.9 |
| 20260508100032 | 43 | 314 | 0.0 | 0.9 | 0.01 | 0.64 | 0.01 | 96 | 1001.7 |
| 20260508094521 | 41 | 23 | 0.0 | 0.9 | 0.00 | 0.69 | 0.00 | 96 | 1001.9 |
| 20260508093023 | 40 | 27 | 0.0 | 0.0 | 0.00 | 0.69 | 0.00 | 96 | 1001.7 |
| 20260508091520 | 40 | 27 | 0.0 | 0.9 | 0.00 | 0.69 | 0.00 | 96 | 1001.7 |
| 20260508090020 | 40 | 27 | 0.0 | 0.9 | 0.00 | 0.69 | 0.00 | 96 | 1001.7 |
| 20260508084518 | 41 | 27 | 0.0 | 0.9 | 0.00 | 0.70 | 0.00 | 96 | 1001.9 |
| 20260508083017 | 40 | 28 | 0.0 | 0.0 | 0.00 | 0.70 | 0.00 | 96 | 1001.6 |
| 20260508081517 | 41 | 27 | 0.0 | 0.9 | 0.00 | 0.70 | 0.00 | 96 | 1001.8 |
| 20260508080022 | 40 | 27 | 0.0 | 0.9 | 0.00 | 0.70 | 0.00 | 96 | 1001.8 |
| 20260508074517 | 40 | 30 | 0.0 | 1.7 | 0.00 | 0.72 | 0.00 | 96 | 1001.8 |
| 20260508073012 | 41 | 265 | 0.0 | 0.9 | 0.00 | 0.72 | 0.00 | 96 | 1001.7 |
| 20260508071512 | 41 | 265 | 0.0 | 0.9 | 0.00 | 0.72 | 0.00 | 96 | 1001.5 |
| 20260508070012 | 42 | 269 | 0.0 | 2.6 | 0.00 | 0.72 | 0.00 | 97 | 1001.7 |
| 20260508064538 | 41 | 3 | 0.0 | 0.0 | 0.00 | 0.72 | 0.00 | 96 | 1001.7 |
| 20260508063012 | 40 | 3 | 0.0 | 0.9 | 0.00 | 0.72 | 0.00 | 96 | 1001.6 |
| 20260508061508 | 41 | 336 | 0.0 | 0.9 | 0.00 | 0.72 | 0.00 | 96 | 1001.4 |
| 20260508060005 | 41 | 336 | 0.0 | 0.9 | 0.00 | 0.72 | 0.00 | 96 | 1001.9 |
| 20260508054503 | 42 | 60 | 0.0 | 0.0 | 0.00 | 0.72 | 0.00 | 96 | 1001.8 |
| 20260508053001 | 42 | 60 | 0.0 | 0.0 | 0.00 | 0.72 | 0.00 | 96 | 1001.8 |
| 20260508051602 | 43 | 60 | 0.0 | 0.9 | 0.00 | 0.72 | 0.00 | 96 | 1002.1 |
| 20260508050100 | 42 | 60 | 0.0 | 0.0 | 0.00 | 0.72 | 0.00 | 96 | 1002.2 |
| 20260508044556 | 42 | 60 | 0.0 | 0.0 | 0.00 | 0.72 | 0.00 | 95 | 1002.3 |
| 20260508043056 | 44 | 61 | 0.0 | 0.9 | 0.00 | 0.72 | 0.00 | 95 | 1002.5 |
| 20260508041550 | 47 | 272 | 0.0 | 0.9 | 0.00 | 0.72 | 0.00 | 96 | 1002.7 |
| 20260508040056 | 47 | 272 | 0.0 | 0.0 | 0.00 | 0.72 | 0.00 | 96 | 1002.5 |
| 20260508034548 | 47 | 272 | 0.0 | 0.9 | 0.00 | 0.72 | 0.00 | 96 | 1002.2 |
| 20260508033046 | 47 | 272 | 0.0 | 0.0 | 0.00 | 0.72 | 0.00 | 96 | 1002.1 |